Regional Weather Roundup
Issued by NWS

Home | Current Version | Previous Version | Graphics & Text | Print | Product List | Glossary On
Versions: 1 2 3 4 5 6 7 8 9 10 11 12 13 14 15 16 17 18 19 20 21 22 23 24 25 26 27 28 29 30 31 32 33 34 35 36 37 38 39 40 41 42 43 44 45 46 47 48 49 50
000
ASUS43 KLOT 211506
RWRIL

ILLINOIS REGIONAL WEATHER ROUNDUP
NATIONAL WEATHER SERVICE CHICAGO/ROMEOVILLE IL
1000 AM CDT TUE OCT 21 2014

NOTE: "FAIR" INDICATES FEW OR NO CLOUDS BELOW 12,000 FEET WITH NO
SIGNIFICANT WEATHER AND/OR OBSTRUCTIONS TO VISIBILITY.

* THESE STATIONS ARE NOT UNDER NWS QUALITY CONTROL. THEY ALSO MAY NOT
  REPORT WEATHER SUCH AS PRECIPITATION OR FOG.

ILZ001-002-007-009-015-016-024-211600-
NORTHWEST ILLINOIS

CITY           SKY/WX    TMP DP  RH WIND       PRES   REMARKS
MOLINE         SUNNY     52  42  69 NE12      30.19R
STERLING*      SUNNY     52  41  66 NE12      30.19R
SAVANNA*       SUNNY     50  41  69 NE8       30.20R
$$

ILZ003-004-008-010-011-017-018-211600-
NORTH CENTRAL ILLINOIS

CITY           SKY/WX    TMP DP  RH WIND       PRES   REMARKS
ROCKFORD       MOSUNNY   50  37  61 NE14      30.22R
FREEPORT*      MOSUNNY   47  38  72 NE12      30.21R
ROCHELLE*      SUNNY     48  39  69 N16       30.19R
DE KALB*       MOSUNNY   47  38  69 NE13G18   30.18R
PERU*          SUNNY     52  43  70 N14       30.18R
$$

ILZ005-006-012>014-019>023-211600-
NORTHEAST ILLINOIS

CITY           SKY/WX    TMP DP  RH WIND       PRES   REMARKS
CHICAGO-OHARE  PTSUNNY   49  40  71 N13       30.15R
CHICAGO-MIDWAY PTSUNNY   51  41  68 N14       30.15R
AURORA         SUNNY     50  38  63 N14       30.17R
LANSING*       CLOUDY    50  42  73 N10G23    30.14R
JOLIET*        SUNNY     51  36  57 N14       30.16R
WAUKEGAN       PTSUNNY   48  40  73 N10G18    30.15R
DUPAGE AIRPORT CLOUDY    50  40  68 N10       30.16R
KANKAKEE*      CLOUDY    50  40  66 N15       30.15R
WHEELING       CLOUDY    50  40  68 N14       30.16R
MORRIS*        MOSUNNY   53  39  59 NE5       30.16R
ROMEOVILLE*    PTSUNNY   50  37  61 N9        30.15R
NORTHERLY ISL    N/A     49  42  77 N15         N/A
$$

LMZ740>746-211600-
SOUTHERN LAKE MICHIGAN

STATION/POSITION SKY/WX   TEMP    WIND        PRES    VSBY  WAVE
                          AIR SEA DIR/SP/G                  HT/PER
                          (F)     (DEG/KT/KT) (MB)    (MI)  (FT/S)
SOUTHERN BUOY              51 54   10/ 19/ 23 1020.1R         6/ 7
WAUKEGAN HARBOR            46     340/ 11/ 16   N/A
HARRISON CRIB              48     340/ 22/ 25   N/A
BURNHAM HARBOR             49     320/ 12/ 17   N/A
CALUMET HARBOR             50     330/  8/ 17 1019.3R
MICHIGAN CITY              50     330/ 21/ 23   N/A
$$

ILZ025>027-034>036-040-047-049-050-058-095>099-211600-
WEST-CENTRAL ILLINOIS

CITY           SKY/WX    TMP DP  RH WIND       PRES   REMARKS
QUINCY         SUNNY     54  42  64 NE12      30.16R
GALESBURG*     SUNNY     51  44  77 NE10      30.18R
MACOMB*        SUNNY     52  44  73 NE9       30.20R
JACKSONVILLE*  SUNNY     55  46  71 NE9       30.16R
PITTSFIELD*    SUNNY     55  44  68 NE9       30.16S
$$

ILZ028>032-037-038-041>044-048-051>054-059>061-211600-
CENTRAL ILLINOIS

CITY           SKY/WX    TMP DP  RH WIND       PRES   REMARKS
BLOOMINGTON    SUNNY     52  44  74 N10       30.16R
DECATUR        SUNNY     54  46  74 N12       30.15R
PEORIA         SUNNY     53  41  63 NE12      30.17R
LACON*         SUNNY     50  42  74 N6        30.17R
LINCOLN*       SUNNY     55  46  72 N8        30.15R
SPRINGFIELD    SUNNY     54  45  71 N10       30.16R
TAYLORVILLE    SUNNY     52  45  76 N8        30.15R
$$

ILZ033-039-045-046-055>057-062-063-211600-
EAST-CENTRAL ILLINOIS

CITY           SKY/WX    TMP DP  RH WIND       PRES   REMARKS
CHAMPAIGN      MOSUNNY   54  45  71 MISG      30.13R
DANVILLE*      CLOUDY    52  45  76 N14       30.10S
RANTOUL*       SUNNY     54  44  70 N13       30.14S
MATTOON        MOSUNNY   54  46  74 N12       30.12R
PARIS*         MOSUNNY   56  47  70 N8        30.12R
$$

ILZ079-100>102-211600-
SOUTHWEST ILLINOIS

CITY           SKY/WX    TMP DP  RH WIND       PRES   REMARKS
ALTON          SUNNY     55  46  71 CALM      30.14
BELLEVILLE     SUNNY     57  49  73 VRB6      30.12R
CAHOKIA*       SUNNY     57  48  72 N7        30.13R
SPARTA*        SUNNY     56  47  71 N6        30.12R
$$

ILZ064>066-069>071-074>076-080>082-084>086-088>090-092>094-211600-
SOUTH-CENTRAL ILLINOIS

CITY           SKY/WX    TMP DP  RH WIND       PRES   REMARKS
CARBONDALE     SUNNY     57  47  69 NW7       30.11R
CAIRO*         SUNNY     64  58  80 NW7       30.10R
EFFINGHAM*     SUNNY     56  47  71 N8        30.13R
MARION         SUNNY     57  48  72 N8        30.11R
MT. VERNON     SUNNY     55  46  71 NE8       30.12R
CENTRALIA*     SUNNY     56  46  67 NE5       30.11S
SALEM*         SUNNY     59  49  71 NE6       30.12R
METROPOLIS*    SUNNY     60  50  68 NW3       30.09R
$$

ILZ067-068-072-073-078-083-087-091-211600-
SOUTHEAST ILLINOIS

CITY           SKY/WX    TMP DP  RH WIND       PRES   REMARKS
LAWRENCEVILLE  PTSUNNY   57  49  74 N7        30.11S
FLORA*         SUNNY     56  47  73 N7        30.12R
FAIRFIELD*     SUNNY     58  48  69 NE8       30.10S
HARRISBURG*    SUNNY     57  49  74 NE6       30.11R
ROBINSON*      PTSUNNY   57  50  79 N7        30.12S
CARMI*         SUNNY     59  50  72 NE7       30.10R
$$

ABBREVIATIONS USED IN REMARKS
   TC - TEMPERATURE IN CELSIUS
  WCI - WIND CHILL INDEX
   HX - HEAT INDEX
  VSB - VISIBILITY
$$




USA.gov is the U.S. government's official web portal to all federal, state and local government web resources and services.